owner,sensor,date,latitude,longitude,vertical_datum,mass_concentration_of_oxygen_in_sea_water,qcFlag 
DISL,ioos:station:DISL:BSCA:1,2016-06-01T00:00:00Z,30.3288,-87.8293,2.043,4.35,1111122 
DISL,ioos:station:DISL:BSCA:1,2016-06-01T00:30:00Z,30.3288,-87.8293,2.036,2.64,1111122 
DISL,ioos:station:DISL:BSCA:1,2016-06-01T01:00:00Z,30.3288,-87.8293,2.06,3.91,1111122 
DISL,ioos:station:DISL:BSCA:1,2016-06-01T01:30:00Z,30.3288,-87.8293,2.049,2.36,1111122 
DISL,ioos:station:DISL:BSCA:1,2016-06-01T02:00:00Z,30.3288,-87.8293,2.06,4.92,1111122 
DISL,ioos:station:DISL:BSCA:1,2016-06-01T02:30:00Z,30.3288,-87.8293,2.072,4.22,1111122 
DISL,ioos:station:DISL:BSCA:1,2016-06-01T03:00:00Z,30.3288,-87.8293,2.07,4.54,1111122 
DISL,ioos:station:DISL:BSCA:1,2016-06-01T03:30:00Z,30.3288,-87.8293,2.075,3.65,1111122 
DISL,ioos:station:DISL:BSCA:1,2016-06-01T04:00:00Z,30.3288,-87.8293,2.069,5.04,1111122 
DISL,ioos:station:DISL:BSCA:1,2016-06-01T04:30:00Z,30.3288,-87.8293,2.059,3.57,1111122 
DISL,ioos:station:DISL:BSCA:1,2016-06-01T05:00:00Z,30.3288,-87.8293,2.065,3.23,1111122 
DISL,ioos:station:DISL:BSCA:1,2016-06-01T05:30:00Z,30.3288,-87.8293,2.065,2.94,1111122 
DISL,ioos:station:DISL:BSCA:1,2016-06-01T06:00:00Z,30.3288,-87.8293,2.071,4.18,1111122 
DISL,ioos:station:DISL:BSCA:1,2016-06-01T06:30:00Z,30.3288,-87.8293,2.062,2.97,1111122 
DISL,ioos:station:DISL:BSCA:1,2016-06-01T07:00:00Z,30.3288,-87.8293,2.066,4.39,1111122 
DISL,ioos:station:DISL:BSCA:1,2016-06-01T07:30:00Z,30.3288,-87.8293,2.069,4.19,1111122 
DISL,ioos:station:DISL:BSCA:1,2016-06-01T08:00:00Z,30.3288,-87.8293,2.072,5.3,1111122 
DISL,ioos:station:DISL:BSCA:1,2016-06-01T08:30:00Z,30.3288,-87.8293,2.09,3.98,1111122 
DISL,ioos:station:DISL:BSCA:1,2016-06-01T09:00:00Z,30.3288,-87.8293,2.109,2.24,1111122 
DISL,ioos:station:DISL:BSCA:1,2016-06-01T09:30:00Z,30.3288,-87.8293,2.132,1.58,1111122 
DISL,ioos:station:DISL:BSCA:1,2016-06-01T10:00:00Z,30.3288,-87.8293,2.143,3.75,1111122 
DISL,ioos:station:DISL:BSCA:1,2016-06-01T10:30:00Z,30.3288,-87.8293,2.151,5.08,1111122 
DISL,ioos:station:DISL:BSCA:1,2016-06-01T11:00:00Z,30.3288,-87.8293,2.158,4.01,1111122 
DISL,ioos:station:DISL:BSCA:1,2016-06-01T11:30:00Z,30.3288,-87.8293,2.18,3.43,1111122 
DISL,ioos:station:DISL:BSCA:1,2016-06-01T12:00:00Z,30.3288,-87.8293,2.196,2.89,1111122 
DISL,ioos:station:DISL:BSCA:1,2016-06-01T12:30:00Z,30.3288,-87.8293,2.209,4.23,1111122 
DISL,ioos:station:DISL:BSCA:1,2016-06-01T13:00:00Z,30.3288,-87.8293,2.217,4.92,1111122 
DISL,ioos:station:DISL:BSCA:1,2016-06-01T13:30:00Z,30.3288,-87.8293,2.206,5.24,1111122 
DISL,ioos:station:DISL:BSCA:1,2016-06-01T14:00:00Z,30.3288,-87.8293,2.202,4.74,1111122 
DISL,ioos:station:DISL:BSCA:1,2016-06-01T14:30:00Z,30.3288,-87.8293,2.205,3.98,1111122 
DISL,ioos:station:DISL:BSCA:1,2016-06-01T15:00:00Z,30.3288,-87.8293,2.206,2.4,1111122 
DISL,ioos:station:DISL:BSCA:1,2016-06-01T15:30:00Z,30.3288,-87.8293,2.204,5.47,1111122 
DISL,ioos:station:DISL:BSCA:1,2016-06-01T16:00:00Z,30.3288,-87.8293,2.204,2.38,1111122 
DISL,ioos:station:DISL:BSCA:1,2016-06-01T16:30:00Z,30.3288,-87.8293,2.183,5.14,1111122 
DISL,ioos:station:DISL:BSCA:1,2016-06-01T17:00:00Z,30.3288,-87.8293,2.145,5.47,1111122 
DISL,ioos:station:DISL:BSCA:1,2016-06-01T17:30:00Z,30.3288,-87.8293,2.125,6.39,1111122 
DISL,ioos:station:DISL:BSCA:1,2016-06-01T18:00:00Z,30.3288,-87.8293,2.074,5.77,1111122 
DISL,ioos:station:DISL:BSCA:1,2016-06-01T18:30:00Z,30.3288,-87.8293,2.051,5.12,1111122 
DISL,ioos:station:DISL:BSCA:1,2016-06-01T19:00:00Z,30.3288,-87.8293,2.011,5.61,1111122 
DISL,ioos:station:DISL:BSCA:1,2016-06-01T19:30:00Z,30.3288,-87.8293,1.981,6.41,1111122 
DISL,ioos:station:DISL:BSCA:1,2016-06-01T20:00:00Z,30.3288,-87.8293,1.952,6.03,1111122 
DISL,ioos:station:DISL:BSCA:1,2016-06-01T20:30:00Z,30.3288,-87.8293,1.939,6.22,1111122 
DISL,ioos:station:DISL:BSCA:1,2016-06-01T21:00:00Z,30.3288,-87.8293,1.914,6.12,1111122 
DISL,ioos:station:DISL:BSCA:1,2016-06-01T21:30:00Z,30.3288,-87.8293,1.911,6.23,1111122 
DISL,ioos:station:DISL:BSCA:1,2016-06-01T22:00:00Z,30.3288,-87.8293,1.902,6.03,1111122 
DISL,ioos:station:DISL:BSCA:1,2016-06-01T22:30:00Z,30.3288,-87.8293,1.91,6.13,1111122 
DISL,ioos:station:DISL:BSCA:1,2016-06-01T23:00:00Z,30.3288,-87.8293,1.906,6.87,1111122 
DISL,ioos:station:DISL:BSCA:1,2016-06-01T23:30:00Z,30.3288,-87.8293,1.911,6.77,1111122 
DISL,ioos:station:DISL:BSCA:1,2016-06-02T00:00:00Z,30.3288,-87.8293,1.902,6.93,1111122 
DISL,ioos:station:DISL:BSCA:1,2016-06-02T00:30:00Z,30.3288,-87.8293,1.901,6.67,1111122 
DISL,ioos:station:DISL:BSCA:1,2016-06-02T01:00:00Z,30.3288,-87.8293,1.907,6.15,1111122 
DISL,ioos:station:DISL:BSCA:1,2016-06-02T01:30:00Z,30.3288,-87.8293,1.917,5.82,1111122 
DISL,ioos:station:DISL:BSCA:1,2016-06-02T02:00:00Z,30.3288,-87.8293,1.939,4.86,1111122 
DISL,ioos:station:DISL:BSCA:1,2016-06-02T02:30:00Z,30.3288,-87.8293,1.968,4.77,1111122 
DISL,ioos:station:DISL:BSCA:1,2016-06-02T03:00:00Z,30.3288,-87.8293,1.998,3.75,1111122 
DISL,ioos:station:DISL:BSCA:1,2016-06-02T03:30:00Z,30.3288,-87.8293,2.019,3.26,1111122 
DISL,ioos:station:DISL:BSCA:1,2016-06-02T04:00:00Z,30.3288,-87.8293,2.028,4.02,1111122 
DISL,ioos:station:DISL:BSCA:1,2016-06-02T04:30:00Z,30.3288,-87.8293,2.036,3.07,1111122 
DISL,ioos:station:DISL:BSCA:1,2016-06-02T05:00:00Z,30.3288,-87.8293,2.044,2.42,1111122 
DISL,ioos:station:DISL:BSCA:1,2016-06-02T05:30:00Z,30.3288,-87.8293,2.061,4.29,1111122 
DISL,ioos:station:DISL:BSCA:1,2016-06-02T06:00:00Z,30.3288,-87.8293,2.066,2.88,1111122 
DISL,ioos:station:DISL:BSCA:1,2016-06-02T06:30:00Z,30.3288,-87.8293,2.071,3.35,1111122 
DISL,ioos:station:DISL:BSCA:1,2016-06-02T07:00:00Z,30.3288,-87.8293,2.08,3.99,1111122 
DISL,ioos:station:DISL:BSCA:1,2016-06-02T07:30:00Z,30.3288,-87.8293,2.079,2.93,1111122 
DISL,ioos:station:DISL:BSCA:1,2016-06-02T08:00:00Z,30.3288,-87.8293,2.104,4.45,1111122 
DISL,ioos:station:DISL:BSCA:1,2016-06-02T08:30:00Z,30.3288,-87.8293,2.108,4.88,1111122 
DISL,ioos:station:DISL:BSCA:1,2016-06-02T09:00:00Z,30.3288,-87.8293,2.127,4.58,1111122 
DISL,ioos:station:DISL:BSCA:1,2016-06-02T09:30:00Z,30.3288,-87.8293,2.134,3.7,1111122 
DISL,ioos:station:DISL:BSCA:1,2016-06-02T10:00:00Z,30.3288,-87.8293,2.164,2.8,1111122 
DISL,ioos:station:DISL:BSCA:1,2016-06-02T10:30:00Z,30.3288,-87.8293,2.179,4.2,1111122 
DISL,ioos:station:DISL:BSCA:1,2016-06-02T11:00:00Z,30.3288,-87.8293,2.201,2.53,1111122 
DISL,ioos:station:DISL:BSCA:1,2016-06-02T11:30:00Z,30.3288,-87.8293,2.235,3.64,1111122 
DISL,ioos:station:DISL:BSCA:1,2016-06-02T12:00:00Z,30.3288,-87.8293,2.252,3.55,1111122 
DISL,ioos:station:DISL:BSCA:1,2016-06-02T12:30:00Z,30.3288,-87.8293,2.264,3.7,1111122 
DISL,ioos:station:DISL:BSCA:1,2016-06-02T13:00:00Z,30.3288,-87.8293,2.265,3.13,1111122 
DISL,ioos:station:DISL:BSCA:1,2016-06-02T13:30:00Z,30.3288,-87.8293,2.281,2.68,1111122 
DISL,ioos:station:DISL:BSCA:1,2016-06-02T14:00:00Z,30.3288,-87.8293,2.267,3.0,1111122 
DISL,ioos:station:DISL:BSCA:1,2016-06-02T14:30:00Z,30.3288,-87.8293,2.272,2.45,1111122 
DISL,ioos:station:DISL:BSCA:1,2016-06-02T15:00:00Z,30.3288,-87.8293,2.268,3.47,1111122 
DISL,ioos:station:DISL:BSCA:1,2016-06-02T15:30:00Z,30.3288,-87.8293,2.254,2.67,1111122 
DISL,ioos:station:DISL:BSCA:1,2016-06-02T16:00:00Z,30.3288,-87.8293,2.238,2.22,1111122 
DISL,ioos:station:DISL:BSCA:1,2016-06-02T16:30:00Z,30.3288,-87.8293,2.217,2.96,1111122 
DISL,ioos:station:DISL:BSCA:1,2016-06-02T17:00:00Z,30.3288,-87.8293,2.178,4.42,1111122 
DISL,ioos:station:DISL:BSCA:1,2016-06-02T17:30:00Z,30.3288,-87.8293,2.152,5.2,1111122 
DISL,ioos:station:DISL:BSCA:1,2016-06-02T18:00:00Z,30.3288,-87.8293,2.097,5.67,1111122 
DISL,ioos:station:DISL:BSCA:1,2016-06-02T18:30:00Z,30.3288,-87.8293,2.056,5.79,1111122 
DISL,ioos:station:DISL:BSCA:1,2016-06-02T19:00:00Z,30.3288,-87.8293,2.0,6.29,1111122 
DISL,ioos:station:DISL:BSCA:1,2016-06-02T19:30:00Z,30.3288,-87.8293,1.969,6.57,1111122 
DISL,ioos:station:DISL:BSCA:1,2016-06-02T20:00:00Z,30.3288,-87.8293,1.933,6.41,1111122 
DISL,ioos:station:DISL:BSCA:1,2016-06-02T20:30:00Z,30.3288,-87.8293,1.899,6.39,1111122 
DISL,ioos:station:DISL:BSCA:1,2016-06-02T21:00:00Z,30.3288,-87.8293,1.88,6.55,1111122 
DISL,ioos:station:DISL:BSCA:1,2016-06-02T21:30:00Z,30.3288,-87.8293,1.866,6.82,1111122 
DISL,ioos:station:DISL:BSCA:1,2016-06-02T22:00:00Z,30.3288,-87.8293,1.866,6.89,1111122 
DISL,ioos:station:DISL:BSCA:1,2016-06-02T22:30:00Z,30.3288,-87.8293,1.863,6.6,1111122 
DISL,ioos:station:DISL:BSCA:1,2016-06-02T23:00:00Z,30.3288,-87.8293,1.874,6.71,1111122 
DISL,ioos:station:DISL:BSCA:1,2016-06-02T23:30:00Z,30.3288,-87.8293,1.864,6.83,1111122 
DISL,ioos:station:DISL:BSCA:1,2016-06-03T00:00:00Z,30.3288,-87.8293,1.871,6.75,1111122 
DISL,ioos:station:DISL:BSCA:1,2016-06-03T00:30:00Z,30.3288,-87.8293,1.868,6.53,1111122 
DISL,ioos:station:DISL:BSCA:1,2016-06-03T01:00:00Z,30.3288,-87.8293,1.877,6.38,1111122 
DISL,ioos:station:DISL:BSCA:1,2016-06-03T01:30:00Z,30.3288,-87.8293,1.891,5.83,1111122 
DISL,ioos:station:DISL:BSCA:1,2016-06-03T02:00:00Z,30.3288,-87.8293,1.911,5.38,1111122 
DISL,ioos:station:DISL:BSCA:1,2016-06-03T02:30:00Z,30.3288,-87.8293,1.926,4.75,1111122 
DISL,ioos:station:DISL:BSCA:1,2016-06-03T03:00:00Z,30.3288,-87.8293,1.943,4.32,1111122 
DISL,ioos:station:DISL:BSCA:1,2016-06-03T03:30:00Z,30.3288,-87.8293,1.954,3.8,1111122 
DISL,ioos:station:DISL:BSCA:1,2016-06-03T04:00:00Z,30.3288,-87.8293,1.982,4.07,1111122 
DISL,ioos:station:DISL:BSCA:1,2016-06-03T04:30:00Z,30.3288,-87.8293,1.995,5.43,1111122 
DISL,ioos:station:DISL:BSCA:1,2016-06-03T05:00:00Z,30.3288,-87.8293,2.032,5.95,1111122 
DISL,ioos:station:DISL:BSCA:1,2016-06-03T05:30:00Z,30.3288,-87.8293,2.05,5.87,1111122 
DISL,ioos:station:DISL:BSCA:1,2016-06-03T06:00:00Z,30.3288,-87.8293,2.076,5.5,1111122 
DISL,ioos:station:DISL:BSCA:1,2016-06-03T06:30:00Z,30.3288,-87.8293,2.099,5.68,1111122 
DISL,ioos:station:DISL:BSCA:1,2016-06-03T07:00:00Z,30.3288,-87.8293,2.122,5.54,1111122 
DISL,ioos:station:DISL:BSCA:1,2016-06-03T07:30:00Z,30.3288,-87.8293,2.139,5.11,1111122 
DISL,ioos:station:DISL:BSCA:1,2016-06-03T08:00:00Z,30.3288,-87.8293,2.159,4.55,1111122 
DISL,ioos:station:DISL:BSCA:1,2016-06-03T08:30:00Z,30.3288,-87.8293,2.178,5.04,1111122 
DISL,ioos:station:DISL:BSCA:1,2016-06-03T09:00:00Z,30.3288,-87.8293,2.202,4.7,1111122 
DISL,ioos:station:DISL:BSCA:1,2016-06-03T09:30:00Z,30.3288,-87.8293,2.226,4.0,1111122 
DISL,ioos:station:DISL:BSCA:1,2016-06-03T10:00:00Z,30.3288,-87.8293,2.245,3.87,1111122 
DISL,ioos:station:DISL:BSCA:1,2016-06-03T10:30:00Z,30.3288,-87.8293,2.273,3.56,1111122 
DISL,ioos:station:DISL:BSCA:1,2016-06-03T11:00:00Z,30.3288,-87.8293,2.292,3.44,1111122 
DISL,ioos:station:DISL:BSCA:1,2016-06-03T11:30:00Z,30.3288,-87.8293,2.316,2.69,1111122 
DISL,ioos:station:DISL:BSCA:1,2016-06-03T12:00:00Z,30.3288,-87.8293,2.33,3.29,1111122 
DISL,ioos:station:DISL:BSCA:1,2016-06-03T12:30:00Z,30.3288,-87.8293,2.359,3.84,1111122 
DISL,ioos:station:DISL:BSCA:1,2016-06-03T13:00:00Z,30.3288,-87.8293,2.352,4.19,1111122 
DISL,ioos:station:DISL:BSCA:1,2016-06-03T13:30:00Z,30.3288,-87.8293,2.361,4.46,1111122 
DISL,ioos:station:DISL:BSCA:1,2016-06-03T14:00:00Z,30.3288,-87.8293,2.36,4.9,1111122 
DISL,ioos:station:DISL:BSCA:1,2016-06-03T14:30:00Z,30.3288,-87.8293,2.36,4.58,1111122 
DISL,ioos:station:DISL:BSCA:1,2016-06-03T15:00:00Z,30.3288,-87.8293,2.352,5.04,1111122 
DISL,ioos:station:DISL:BSCA:1,2016-06-03T15:30:00Z,30.3288,-87.8293,2.35,5.37,1111122 
DISL,ioos:station:DISL:BSCA:1,2016-06-03T16:00:00Z,30.3288,-87.8293,2.331,5.57,1111122 
DISL,ioos:station:DISL:BSCA:1,2016-06-03T16:30:00Z,30.3288,-87.8293,2.306,5.4,1111122 
DISL,ioos:station:DISL:BSCA:1,2016-06-03T17:00:00Z,30.3288,-87.8293,2.276,5.83,1111122 
DISL,ioos:station:DISL:BSCA:1,2016-06-03T17:30:00Z,30.3288,-87.8293,2.244,5.99,1111122 
DISL,ioos:station:DISL:BSCA:1,2016-06-03T18:00:00Z,30.3288,-87.8293,2.209,5.61,1111122 
DISL,ioos:station:DISL:BSCA:1,2016-06-03T18:30:00Z,30.3288,-87.8293,2.177,6.09,1111122 
DISL,ioos:station:DISL:BSCA:1,2016-06-03T19:00:00Z,30.3288,-87.8293,2.134,5.85,1111122 
DISL,ioos:station:DISL:BSCA:1,2016-06-03T19:30:00Z,30.3288,-87.8293,2.086,5.87,1111122 
DISL,ioos:station:DISL:BSCA:1,2016-06-03T20:00:00Z,30.3288,-87.8293,2.029,6.33,1111122 
DISL,ioos:station:DISL:BSCA:1,2016-06-03T20:30:00Z,30.3288,-87.8293,1.975,6.19,1111122 
DISL,ioos:station:DISL:BSCA:1,2016-06-03T21:00:00Z,30.3288,-87.8293,1.95,6.53,1111122 
DISL,ioos:station:DISL:BSCA:1,2016-06-03T21:30:00Z,30.3288,-87.8293,1.925,6.75,1111122 
DISL,ioos:station:DISL:BSCA:1,2016-06-03T22:00:00Z,30.3288,-87.8293,1.901,6.83,1111122 
DISL,ioos:station:DISL:BSCA:1,2016-06-03T22:30:00Z,30.3288,-87.8293,1.875,6.89,1111122 
DISL,ioos:station:DISL:BSCA:1,2016-06-03T23:00:00Z,30.3288,-87.8293,1.848,6.81,1111122 
DISL,ioos:station:DISL:BSCA:1,2016-06-03T23:30:00Z,30.3288,-87.8293,1.834,6.72,1111122 
DISL,ioos:station:DISL:BSCA:1,2016-06-04T00:00:00Z,30.3288,-87.8293,1.82,6.61,1111122 
DISL,ioos:station:DISL:BSCA:1,2016-06-04T00:30:00Z,30.3288,-87.8293,1.807,6.61,1111122 
DISL,ioos:station:DISL:BSCA:1,2016-06-04T01:00:00Z,30.3288,-87.8293,1.815,6.61,1111122 
DISL,ioos:station:DISL:BSCA:1,2016-06-04T01:30:00Z,30.3288,-87.8293,1.818,6.4,1111122 
DISL,ioos:station:DISL:BSCA:1,2016-06-04T02:00:00Z,30.3288,-87.8293,1.831,6.23,1111122 
DISL,ioos:station:DISL:BSCA:1,2016-06-04T02:30:00Z,30.3288,-87.8293,1.848,6.06,1111122 
DISL,ioos:station:DISL:BSCA:1,2016-06-04T03:00:00Z,30.3288,-87.8293,1.867,5.88,1111122 
DISL,ioos:station:DISL:BSCA:1,2016-06-04T03:30:00Z,30.3288,-87.8293,1.887,5.82,1111122 
DISL,ioos:station:DISL:BSCA:1,2016-06-04T04:00:00Z,30.3288,-87.8293,1.927,5.42,1111122 
DISL,ioos:station:DISL:BSCA:1,2016-06-04T04:30:00Z,30.3288,-87.8293,1.968,5.39,1111122 
DISL,ioos:station:DISL:BSCA:1,2016-06-04T05:00:00Z,30.3288,-87.8293,2.02,6.01,1111122 
DISL,ioos:station:DISL:BSCA:1,2016-06-04T05:30:00Z,30.3288,-87.8293,2.039,5.54,1111122 
DISL,ioos:station:DISL:BSCA:1,2016-06-04T06:00:00Z,30.3288,-87.8293,2.08,4.0,1111122 
DISL,ioos:station:DISL:BSCA:1,2016-06-04T06:30:00Z,30.3288,-87.8293,2.086,4.77,1111122 
DISL,ioos:station:DISL:BSCA:1,2016-06-04T07:00:00Z,30.3288,-87.8293,2.116,5.23,1111122 
DISL,ioos:station:DISL:BSCA:1,2016-06-04T07:30:00Z,30.3288,-87.8293,2.192,5.53,1111122 
DISL,ioos:station:DISL:BSCA:1,2016-06-04T08:00:00Z,30.3288,-87.8293,2.024,6.06,1111122 
DISL,ioos:station:DISL:BSCA:1,2016-06-04T08:30:00Z,30.3288,-87.8293,2.143,6.0,1111122 
DISL,ioos:station:DISL:BSCA:1,2016-06-04T09:00:00Z,30.3288,-87.8293,2.163,5.65,1111122 
DISL,ioos:station:DISL:BSCA:1,2016-06-04T09:30:00Z,30.3288,-87.8293,2.165,5.11,1111122 
DISL,ioos:station:DISL:BSCA:1,2016-06-04T10:00:00Z,30.3288,-87.8293,2.198,4.25,1111122 
DISL,ioos:station:DISL:BSCA:1,2016-06-04T10:30:00Z,30.3288,-87.8293,2.222,4.98,1111122 
DISL,ioos:station:DISL:BSCA:1,2016-06-04T11:00:00Z,30.3288,-87.8293,2.253,2.93,1111122 
DISL,ioos:station:DISL:BSCA:1,2016-06-04T11:30:00Z,30.3288,-87.8293,2.312,3.76,1111122 
DISL,ioos:station:DISL:BSCA:1,2016-06-04T12:00:00Z,30.3288,-87.8293,2.321,4.36,1111122 
DISL,ioos:station:DISL:BSCA:1,2016-06-04T12:30:00Z,30.3288,-87.8293,2.345,4.16,1111122 
DISL,ioos:station:DISL:BSCA:1,2016-06-04T13:00:00Z,30.3288,-87.8293,2.347,4.69,1111122 
DISL,ioos:station:DISL:BSCA:1,2016-06-04T13:30:00Z,30.3288,-87.8293,2.352,4.1,1111122 
DISL,ioos:station:DISL:BSCA:1,2016-06-04T14:00:00Z,30.3288,-87.8293,2.379,4.39,1111122 
DISL,ioos:station:DISL:BSCA:1,2016-06-04T14:30:00Z,30.3288,-87.8293,2.399,4.54,1111122 
DISL,ioos:station:DISL:BSCA:1,2016-06-04T15:00:00Z,30.3288,-87.8293,2.428,4.98,1111122 
DISL,ioos:station:DISL:BSCA:1,2016-06-04T15:30:00Z,30.3288,-87.8293,2.42,4.85,1111122 
DISL,ioos:station:DISL:BSCA:1,2016-06-04T16:00:00Z,30.3288,-87.8293,2.417,4.36,1111122 
DISL,ioos:station:DISL:BSCA:1,2016-06-04T16:30:00Z,30.3288,-87.8293,2.427,4.79,1111122 
DISL,ioos:station:DISL:BSCA:1,2016-06-04T17:00:00Z,30.3288,-87.8293,2.398,5.82,1111122 
DISL,ioos:station:DISL:BSCA:1,2016-06-04T17:30:00Z,30.3288,-87.8293,2.383,6.06,1111122 
DISL,ioos:station:DISL:BSCA:1,2016-06-04T18:00:00Z,30.3288,-87.8293,2.347,6.16,1111122 
DISL,ioos:station:DISL:BSCA:1,2016-06-04T18:30:00Z,30.3288,-87.8293,2.318,6.48,1111122 
DISL,ioos:station:DISL:BSCA:1,2016-06-04T19:00:00Z,30.3288,-87.8293,2.274,6.92,1111122 
DISL,ioos:station:DISL:BSCA:1,2016-06-04T19:30:00Z,30.3288,-87.8293,2.2,7.08,1111122 
DISL,ioos:station:DISL:BSCA:1,2016-06-04T20:00:00Z,30.3288,-87.8293,2.159,7.0,1111122 
DISL,ioos:station:DISL:BSCA:1,2016-06-04T20:30:00Z,30.3288,-87.8293,2.113,7.09,1111122 
DISL,ioos:station:DISL:BSCA:1,2016-06-04T21:00:00Z,30.3288,-87.8293,2.081,6.84,1111122 
DISL,ioos:station:DISL:BSCA:1,2016-06-04T21:30:00Z,30.3288,-87.8293,2.046,6.99,1111122 
DISL,ioos:station:DISL:BSCA:1,2016-06-04T22:00:00Z,30.3288,-87.8293,2.024,6.79,1111122 
DISL,ioos:station:DISL:BSCA:1,2016-06-04T22:30:00Z,30.3288,-87.8293,2.027,6.54,1111122 
DISL,ioos:station:DISL:BSCA:1,2016-06-04T23:00:00Z,30.3288,-87.8293,2.016,6.64,1111122 
DISL,ioos:station:DISL:BSCA:1,2016-06-04T23:30:00Z,30.3288,-87.8293,2.004,6.7,1111122 
DISL,ioos:station:DISL:BSCA:1,2016-06-05T00:00:00Z,30.3288,-87.8293,1.973,6.53,1111122 
DISL,ioos:station:DISL:BSCA:1,2016-06-05T00:30:00Z,30.3288,-87.8293,1.945,6.45,1111122 
DISL,ioos:station:DISL:BSCA:1,2016-06-05T01:00:00Z,30.3288,-87.8293,1.919,6.36,1111122 
DISL,ioos:station:DISL:BSCA:1,2016-06-05T01:30:00Z,30.3288,-87.8293,1.902,6.19,1111122 
DISL,ioos:station:DISL:BSCA:1,2016-06-05T02:00:00Z,30.3288,-87.8293,1.893,6.07,1111122 
DISL,ioos:station:DISL:BSCA:1,2016-06-05T02:30:00Z,30.3288,-87.8293,1.911,5.8,1111122 
DISL,ioos:station:DISL:BSCA:1,2016-06-05T03:00:00Z,30.3288,-87.8293,1.914,5.89,1111122 
DISL,ioos:station:DISL:BSCA:1,2016-06-05T03:30:00Z,30.3288,-87.8293,1.905,5.37,1111122 
DISL,ioos:station:DISL:BSCA:1,2016-06-05T04:00:00Z,30.3288,-87.8293,1.908,3.35,1111122 
DISL,ioos:station:DISL:BSCA:1,2016-06-05T04:30:00Z,30.3288,-87.8293,1.891,5.12,1111122 
DISL,ioos:station:DISL:BSCA:1,2016-06-05T05:00:00Z,30.3288,-87.8293,1.963,5.55,1111122 
DISL,ioos:station:DISL:BSCA:1,2016-06-05T05:30:00Z,30.3288,-87.8293,1.951,5.91,1111122 
DISL,ioos:station:DISL:BSCA:1,2016-06-05T06:00:00Z,30.3288,-87.8293,1.984,6.13,1111122 
DISL,ioos:station:DISL:BSCA:1,2016-06-05T06:30:00Z,30.3288,-87.8293,2.058,6.21,1111122 
DISL,ioos:station:DISL:BSCA:1,2016-06-05T07:00:00Z,30.3288,-87.8293,2.123,6.26,1111122 
DISL,ioos:station:DISL:BSCA:1,2016-06-05T07:30:00Z,30.3288,-87.8293,2.085,6.18,1111122 
DISL,ioos:station:DISL:BSCA:1,2016-06-05T08:00:00Z,30.3288,-87.8293,2.15,5.71,1111122 
DISL,ioos:station:DISL:BSCA:1,2016-06-05T08:30:00Z,30.3288,-87.8293,2.114,5.16,1111122 
DISL,ioos:station:DISL:BSCA:1,2016-06-05T09:00:00Z,30.3288,-87.8293,2.188,5.24,1111122 
DISL,ioos:station:DISL:BSCA:1,2016-06-05T09:30:00Z,30.3288,-87.8293,2.147,5.38,1111122 
DISL,ioos:station:DISL:BSCA:1,2016-06-05T10:00:00Z,30.3288,-87.8293,2.138,6.16,1111122 
DISL,ioos:station:DISL:BSCA:1,2016-06-05T10:30:00Z,30.3288,-87.8293,2.139,5.65,1111122 
DISL,ioos:station:DISL:BSCA:1,2016-06-05T11:00:00Z,30.3288,-87.8293,2.155,3.99,1111122 
DISL,ioos:station:DISL:BSCA:1,2016-06-05T11:30:00Z,30.3288,-87.8293,2.186,3.45,1111122 
DISL,ioos:station:DISL:BSCA:1,2016-06-05T12:00:00Z,30.3288,-87.8293,2.235,3.09,1111122 
DISL,ioos:station:DISL:BSCA:1,2016-06-05T12:30:00Z,30.3288,-87.8293,2.3,3.94,1111122 
DISL,ioos:station:DISL:BSCA:1,2016-06-05T13:00:00Z,30.3288,-87.8293,2.345,4.07,1111122 
DISL,ioos:station:DISL:BSCA:1,2016-06-05T13:30:00Z,30.3288,-87.8293,2.383,5.41,1111122 
DISL,ioos:station:DISL:BSCA:1,2016-06-05T14:00:00Z,30.3288,-87.8293,2.408,4.03,1111122 
DISL,ioos:station:DISL:BSCA:1,2016-06-05T14:30:00Z,30.3288,-87.8293,2.434,4.52,1111122 
DISL,ioos:station:DISL:BSCA:1,2016-06-05T15:00:00Z,30.3288,-87.8293,2.43,5.37,1111122 
DISL,ioos:station:DISL:BSCA:1,2016-06-05T15:30:00Z,30.3288,-87.8293,2.448,3.96,1111122 
DISL,ioos:station:DISL:BSCA:1,2016-06-05T16:00:00Z,30.3288,-87.8293,2.462,3.94,1111122 
DISL,ioos:station:DISL:BSCA:1,2016-06-05T16:30:00Z,30.3288,-87.8293,2.473,4.91,1111122 
DISL,ioos:station:DISL:BSCA:1,2016-06-05T17:00:00Z,30.3288,-87.8293,2.46,5.33,1111122 
DISL,ioos:station:DISL:BSCA:1,2016-06-05T17:30:00Z,30.3288,-87.8293,2.432,4.58,1111122 
DISL,ioos:station:DISL:BSCA:1,2016-06-05T18:00:00Z,30.3288,-87.8293,2.413,4.97,1111122 
DISL,ioos:station:DISL:BSCA:1,2016-06-05T18:30:00Z,30.3288,-87.8293,2.39,5.72,1111122 
DISL,ioos:station:DISL:BSCA:1,2016-06-05T19:00:00Z,30.3288,-87.8293,2.365,5.88,1111122 
DISL,ioos:station:DISL:BSCA:1,2016-06-05T19:30:00Z,30.3288,-87.8293,2.322,5.58,1111122 
DISL,ioos:station:DISL:BSCA:1,2016-06-05T20:00:00Z,30.3288,-87.8293,2.28,6.11,1111122 
DISL,ioos:station:DISL:BSCA:1,2016-06-05T20:30:00Z,30.3288,-87.8293,2.229,6.14,1111122 
DISL,ioos:station:DISL:BSCA:1,2016-06-05T21:00:00Z,30.3288,-87.8293,2.192,5.94,1111122 
DISL,ioos:station:DISL:BSCA:1,2016-06-05T21:30:00Z,30.3288,-87.8293,2.148,6.23,1111122 
DISL,ioos:station:DISL:BSCA:1,2016-06-05T22:00:00Z,30.3288,-87.8293,2.104,6.17,1111122 
DISL,ioos:station:DISL:BSCA:1,2016-06-05T22:30:00Z,30.3288,-87.8293,2.073,5.98,1111122 
DISL,ioos:station:DISL:BSCA:1,2016-06-05T23:00:00Z,30.3288,-87.8293,2.039,6.06,1111122 
DISL,ioos:station:DISL:BSCA:1,2016-06-05T23:30:00Z,30.3288,-87.8293,2.008,6.16,1111122 
DISL,ioos:station:DISL:BSCA:1,2016-06-06T00:00:00Z,30.3288,-87.8293,1.98,6.24,1111122 
DISL,ioos:station:DISL:BSCA:1,2016-06-06T00:30:00Z,30.3288,-87.8293,1.95,6.13,1111122 
DISL,ioos:station:DISL:BSCA:1,2016-06-06T01:00:00Z,30.3288,-87.8293,1.935,6.28,1111122 
DISL,ioos:station:DISL:BSCA:1,2016-06-06T01:30:00Z,30.3288,-87.8293,1.913,6.13,1111122 
DISL,ioos:station:DISL:BSCA:1,2016-06-06T02:00:00Z,30.3288,-87.8293,1.899,5.88,1111122 
DISL,ioos:station:DISL:BSCA:1,2016-06-06T02:30:00Z,30.3288,-87.8293,1.884,5.97,1111122 
DISL,ioos:station:DISL:BSCA:1,2016-06-06T03:00:00Z,30.3288,-87.8293,1.878,5.11,1111122 
DISL,ioos:station:DISL:BSCA:1,2016-06-06T03:30:00Z,30.3288,-87.8293,1.875,6.04,1111122 
DISL,ioos:station:DISL:BSCA:1,2016-06-06T04:00:00Z,30.3288,-87.8293,1.872,6.07,1111122 
DISL,ioos:station:DISL:BSCA:1,2016-06-06T04:30:00Z,30.3288,-87.8293,1.859,4.31,1111122 
DISL,ioos:station:DISL:BSCA:1,2016-06-06T05:00:00Z,30.3288,-87.8293,1.864,5.62,1111122 
DISL,ioos:station:DISL:BSCA:1,2016-06-06T05:30:00Z,30.3288,-87.8293,1.877,6.27,1111122 
DISL,ioos:station:DISL:BSCA:1,2016-06-06T06:00:00Z,30.3288,-87.8293,1.907,5.0,1111122 
DISL,ioos:station:DISL:BSCA:1,2016-06-06T06:30:00Z,30.3288,-87.8293,1.946,5.16,1111122 
DISL,ioos:station:DISL:BSCA:1,2016-06-06T07:00:00Z,30.3288,-87.8293,1.992,5.16,1111122 
DISL,ioos:station:DISL:BSCA:1,2016-06-06T07:30:00Z,30.3288,-87.8293,2.037,5.06,1111122 
DISL,ioos:station:DISL:BSCA:1,2016-06-06T08:00:00Z,30.3288,-87.8293,2.06,4.82,1111122 
DISL,ioos:station:DISL:BSCA:1,2016-06-06T08:30:00Z,30.3288,-87.8293,2.101,4.37,1111122 
DISL,ioos:station:DISL:BSCA:1,2016-06-06T09:00:00Z,30.3288,-87.8293,2.116,4.67,1111122 
DISL,ioos:station:DISL:BSCA:1,2016-06-06T09:30:00Z,30.3288,-87.8293,2.149,4.47,1111122 
DISL,ioos:station:DISL:BSCA:1,2016-06-06T10:00:00Z,30.3288,-87.8293,2.164,4.54,1111122 
DISL,ioos:station:DISL:BSCA:1,2016-06-06T10:30:00Z,30.3288,-87.8293,2.184,3.76,1111122 
DISL,ioos:station:DISL:BSCA:1,2016-06-06T11:00:00Z,30.3288,-87.8293,2.204,3.94,1111122 
DISL,ioos:station:DISL:BSCA:1,2016-06-06T11:30:00Z,30.3288,-87.8293,2.244,4.0,1111122 
DISL,ioos:station:DISL:BSCA:1,2016-06-06T12:00:00Z,30.3288,-87.8293,2.258,4.42,1111122 
DISL,ioos:station:DISL:BSCA:1,2016-06-06T12:30:00Z,30.3288,-87.8293,2.299,3.74,1111122 
DISL,ioos:station:DISL:BSCA:1,2016-06-06T13:00:00Z,30.3288,-87.8293,2.344,4.06,1111122 
DISL,ioos:station:DISL:BSCA:1,2016-06-06T13:30:00Z,30.3288,-87.8293,2.385,4.25,1111122 
DISL,ioos:station:DISL:BSCA:1,2016-06-06T14:00:00Z,30.3288,-87.8293,2.405,4.07,1111122 
DISL,ioos:station:DISL:BSCA:1,2016-06-06T14:30:00Z,30.3288,-87.8293,2.443,3.27,1111122 
DISL,ioos:station:DISL:BSCA:1,2016-06-06T15:00:00Z,30.3288,-87.8293,2.466,3.9,1111122 
DISL,ioos:station:DISL:BSCA:1,2016-06-06T15:30:00Z,30.3288,-87.8293,2.496,4.2,1111122 